TimeCDT,TemperatureF,Dew PointF,Humidity,Sea Level PressureIn,VisibilityMPH,Wind Direction,Wind SpeedMPH,Gust SpeedMPH,PrecipitationIn,Events,Conditions,WindDirDegrees,DateUTC
12:53 AM,62.1,59.0,90,30.15,10.0,Calm,Calm,-,N/A,,Clear,0,2013-10-14 05:53:00
1:53 AM,62.1,59.0,90,30.15,7.0,Calm,Calm,-,N/A,,Clear,0,2013-10-14 06:53:00
2:53 AM,63.0,57.9,84,30.14,10.0,North,4.6,-,N/A,,Clear,350,2013-10-14 07:53:00
3:53 AM,60.1,57.0,90,30.16,8.0,Calm,Calm,-,N/A,,Clear,0,2013-10-14 08:53:00
4:53 AM,59.0,57.0,93,30.17,6.0,Calm,Calm,-,N/A,,Clear,0,2013-10-14 09:53:00
5:53 AM,59.0,57.0,93,30.16,6.0,Calm,Calm,-,N/A,,Clear,0,2013-10-14 10:53:00
6:53 AM,57.9,55.9,93,30.18,6.0,Calm,Calm,-,N/A,,Clear,0,2013-10-14 11:53:00
7:53 AM,62.1,57.9,86,30.19,5.0,Calm,Calm,-,N/A,,Clear,0,2013-10-14 12:53:00
8:53 AM,69.1,60.1,73,30.19,9.0,ENE,3.5,-,N/A,,Clear,70,2013-10-14 13:53:00
9:53 AM,75.0,63.0,66,30.19,10.0,East,6.9,-,N/A,,Clear,90,2013-10-14 14:53:00
10:53 AM,77.0,63.0,62,30.17,10.0,SE,6.9,-,N/A,,Clear,140,2013-10-14 15:53:00
11:53 AM,80.1,63.0,56,30.15,10.0,South,5.8,-,N/A,,Partly Cloudy,180,2013-10-14 16:53:00
12:53 PM,82.0,63.0,52,30.13,10.0,NNE,4.6,-,N/A,,Partly Cloudy,20,2013-10-14 17:53:00
1:53 PM,80.1,61.0,52,30.10,10.0,SSE,3.5,-,N/A,,Clear,150,2013-10-14 18:53:00
2:53 PM,82.9,61.0,47,30.07,10.0,ENE,4.6,-,N/A,,Clear,70,2013-10-14 19:53:00
3:53 PM,82.9,61.0,47,30.06,10.0,NE,5.8,-,N/A,,Scattered Clouds,50,2013-10-14 20:53:00
4:53 PM,82.9,60.1,46,30.06,10.0,ESE,4.6,-,N/A,,Mostly Cloudy,120,2013-10-14 21:53:00
5:53 PM,80.1,61.0,52,30.07,10.0,ESE,8.1,-,N/A,,Overcast,110,2013-10-14 22:53:00
6:53 PM,75.9,61.0,60,30.08,10.0,ESE,4.6,-,N/A,,Clear,110,2013-10-14 23:53:00
7:53 PM,72.0,62.1,71,30.08,10.0,East,4.6,-,N/A,,Clear,100,2013-10-15 00:53:00
8:53 PM,73.0,62.1,68,30.10,10.0,East,4.6,-,N/A,,Clear,100,2013-10-15 01:53:00
9:53 PM,72.0,62.1,71,30.10,10.0,East,3.5,-,N/A,,Clear,100,2013-10-15 02:53:00
10:53 PM,72.0,62.1,71,30.10,10.0,East,3.5,-,N/A,,Clear,100,2013-10-15 03:53:00
11:53 PM,70.0,61.0,73,30.10,9.0,Variable,4.6,-,N/A,,Clear,0,2013-10-15 04:53:00